This is the latest recevied weather packets stored in our database for station/object W8DRH-13. If no packets are shown the sender has not sent any weather packets the latest 10 day(s).
| Time | Temp. | Humidity | Pressure | Rain* | Wind** | Luminosity | Snow |
|---|---|---|---|---|---|---|---|
| 1777997755 | 18.89° C | 70% | 1005.7 hPa | 0 mm | - | 291 W/m² | - |
| 1777996543 | 18.89° C | 70% | 1006 hPa | 0 mm | - | 209 W/m² | - |
| 1777995330 | 18.89° C | 70% | 1006 hPa | 0 mm | - | 151 W/m² | - |
| 1777995026 | 19.44° C | 69% | 1006 hPa | 0 mm | - | 178 W/m² | - |
| 1777994723 | 19.44° C | 69% | 1005.8 hPa | 0 mm | - | 368 W/m² | - |
| 1777994114 | 19.44° C | 68% | 1005.7 hPa | 0 mm | - | 641 W/m² | - |
| 1777993812 | 18.89° C | 69% | 1005.4 hPa | 0 mm | - | 601 W/m² | - |
| 1777993508 | 19.44° C | 68% | 1005.6 hPa | 0 mm | - | 354 W/m² | - |
| 1777992599 | 19.44° C | 69% | 1004.9 hPa | 0 mm | - | 599 W/m² | - |
| 1777991993 | 18.89° C | 69% | 1004.9 hPa | 0 mm | - | 628 W/m² | - |
| 1777991691 | 18.89° C | 69% | 1004.5 hPa | 0 mm | - | 451 W/m² | - |
| 1777991388 | 18.89° C | 70% | 1004.5 hPa | 0 mm | - | 505 W/m² | - |
| 1777991085 | 18.33° C | 70% | 1004.5 hPa | 0 mm | - | 563 W/m² | - |
| 1777990783 | 18.33° C | 72% | 1004.4 hPa | 0 mm | - | 574 W/m² | - |
| 1777990480 | 18.33° C | 72% | 1004.4 hPa | 0 mm | - | 540 W/m² | - |
| 1777989873 | 17.78° C | 73% | 1004.5 hPa | 0 mm | - | 501 W/m² | - |
| 1777989570 | 17.78° C | 74% | 1004.7 hPa | 0 mm | - | 462 W/m² | - |
| 1777988356 | 17.22° C | 75% | 1005 hPa | 0 mm | - | 411 W/m² | - |
| 1777988054 | 16.67° C | 77% | 1004.9 hPa | 0 mm | - | 336 W/m² | - |
| 1777987749 | 16.67° C | 77% | 1004.8 hPa | 0 mm | - | 335 W/m² | - |
| 1777987446 | 16.67° C | 77% | 1004.4 hPa | 0 mm | - | 329 W/m² | - |
| 1777986840 | 16.67° C | 78% | 1004.8 hPa | 0 mm | - | 312 W/m² | - |
| 1777986538 | 16.67° C | 78% | 1005 hPa | 0 mm | - | 253 W/m² | - |
| 1777986236 | 16.11° C | 79% | 1005 hPa | 0 mm | - | 92 W/m² | - |
| 1777985933 | 16.11° C | 79% | 1005 hPa | 0 mm | - | 80 W/m² | - |
* Rain latest hour (hover to see other rain measurements)
** Current wind speed in m/s (hover to see current wind gust speed)